EDT,Max TemperatureF,Mean TemperatureF,Min TemperatureF,Max Dew PointF,MeanDew PointF,Min DewpointF,Max Humidity, Mean Humidity, Min Humidity, Max Sea Level PressureIn, Mean Sea Level PressureIn, Min Sea Level PressureIn, Max VisibilityMiles, Mean VisibilityMiles, Min VisibilityMiles, Max Wind SpeedMPH, Mean Wind SpeedMPH, Max Gust SpeedMPH,PrecipitationIn, CloudCover, Events, WindDirDegrees
2013-5-1,79,66,55,54,51,45,80,62,41,30.24,30.20,30.11,10,10,10,18,13,26,0.00,0,,118
2013-5-2,77,66,57,50,40,30,70,40,22,30.29,30.22,30.14,10,10,10,18,11,25,0.00,0,,129
2013-5-3,78,68,59,42,37,31,48,32,20,30.17,30.13,30.07,10,10,9,18,14,29,0.00,0,,140
2013-5-4,73,64,55,44,38,33,54,38,24,30.15,30.10,30.05,10,10,10,18,12,29,0.00,1,,128
2013-5-5,72,64,57,48,37,23,64,43,16,30.10,30.05,29.99,10,10,10,18,10,28,0.00,0,,108
2013-5-6,69,60,54,49,41,24,72,54,23,30.05,30.01,29.97,10,10,10,17,10,25,0.00,0,,101
2013-5-7,64,58,52,51,50,49,89,78,63,30.04,30.00,29.97,10,10,10,14,9,,0.00,4,,55
2013-5-8,70,58,51,56,52,49,93,81,60,29.99,29.97,29.94,10,10,9,8,3,,0.03,5,Rain,30
2013-5-9,72,62,54,57,49,37,97,67,29,29.99,29.95,29.93,10,10,8,10,2,,0.00,3,,231
2013-5-10,73,60,48,62,54,39,100,79,35,29.93,29.82,29.74,10,7,2,17,11,36,0.78,7,Rain-Thunderstorm,192
2013-5-11,57,50,45,48,44,39,93,84,69,29.90,29.84,29.79,10,8,3,25,10,38,0.05,8,Rain,290
2013-5-12,50,44,39,39,34,27,79,67,49,30.08,29.95,29.89,10,10,10,28,19,34,0.02,6,,280
2013-5-13,48,44,39,31,28,24,65,54,42,30.21,30.14,30.07,10,10,9,18,13,25,0.00,2,,301
2013-5-14,68,54,41,40,33,24,55,45,34,30.16,29.99,29.78,10,10,7,18,12,28,0.00,5,,160
2013-5-15,77,67,59,60,52,40,68,59,47,29.78,29.72,29.65,10,10,8,20,13,28,0.01,1,Thunderstorm,221
2013-5-16,75,64,54,53,49,42,90,61,32,29.98,29.88,29.75,10,10,10,9,6,,0.00,2,,276
2013-5-17,64,59,54,52,49,41,84,73,43,30.14,30.09,29.99,10,10,10,20,10,26,0.00,1,,46
2013-5-18,66,60,55,53,50,43,87,71,55,30.14,30.08,30.02,10,10,10,17,7,,0.00,1,,52
2013-5-19,82,68,57,63,60,53,84,72,56,30.04,29.99,29.93,10,10,10,13,8,20,0.00,2,,125
2013-5-20,87,77,68,68,65,62,84,65,51,29.96,29.91,29.84,10,10,8,16,9,23,0.00,1,,172
2013-5-21,88,80,73,68,63,58,82,59,38,29.87,29.81,29.74,10,10,8,16,12,30,0.00,1,,192
2013-5-22,87,76,66,65,61,58,88,62,40,29.79,29.73,29.66,10,9,1,29,13,39,0.50,3,Rain-Thunderstorm,195
2013-5-23,71,58,44,63,53,42,100,88,70,30.06,29.85,29.71,10,7,2,25,13,32,0.08,7,Rain,310
2013-5-24,48,44,43,41,36,34,87,72,63,30.35,30.25,30.07,10,10,10,24,18,32,0.06,7,,345
2013-5-25,57,50,42,42,37,32,79,63,42,30.38,30.33,30.28,10,10,10,15,10,,0.02,1,,339
2013-5-26,61,53,46,44,39,32,79,60,44,30.34,30.30,30.25,10,10,10,10,6,,0.00,0,,322
2013-5-27,61,53,46,49,42,35,80,64,39,30.27,30.19,30.04,10,10,10,14,6,21,0.01,4,Rain,145
2013-5-28,82,68,55,66,59,50,93,75,52,30.01,29.94,29.87,10,10,5,18,12,25,0.00,6,Rain,182
2013-5-29,86,76,71,65,61,58,73,60,52,30.01,29.96,29.89,10,10,10,20,13,33,0.00,3,,218
2013-5-30,89,81,73,67,61,57,68,52,35,30.11,30.06,30.00,10,10,9,17,12,23,0.00,0,,192
2013-5-31,90,78,66,68,64,61,100,75,42,30.04,29.99,29.92,10,8,1,30,11,39,0.01,4,Rain,199